www.pogodaiklimat.ru

Погода и климат >> Архив погоды >> Аргентина >> Сан-Рамон-де-ла-Нуэва-Оран


ПОГОДА в Сан-Рамон-де-ла-Нуэва-Оране

  • Прогноз погоды в Сан-Рамон-де-ла-Нуэва-Оране
  • Монитор погоды в Сан-Рамон-де-ла-Нуэва-Оране

АРХИВ ПОГОДЫ в Сан-Рамон-де-ла-Нуэва-Оране

Время (UTC), дата Ветер
(напр.,м/с)
 
Видим.   Явления Облачность Т
(С)
Тd
(С)
f
(%)
Тe
(С)
Тes
(С)
Комфортность P
(гПа)
Po
(гПа)
Тmin
(С)
Tmax
(С)
R
(мм)
R24
(мм)
S
(см)
03 12.02 Ю 9 4000 м гроза, ливневой дождь 10/10 180 м
[Cb cap As op]
+24.1 +23.1 94 +32 +32 очень
душно
1008.2 968.5
06 12.02 Ю 7 2000 м гроза, ливневой дождь 10/10 180 м
[Cb cap As op]
+22.2 +21.4 95 +29 +29 очень
душно
1011.9 972.0 23
09 12.02 Ю 4 2000 м слаб. дождь {гроза} 10/10 150 м
[Frnb Ns]
+19.8 +19.3 97 +23 +23 комфорт 1015.2 975.0
12 12.02 Ю 4 3000 м слаб. дождь {гроза} 10/5 180 м
[Frnb As op]
+19.2 +18.2 94 +21 +21 комфорт 1019.3 978.6 +18.6 +30.4 24
15 12.02 В 4 2500 м слаб. дождь 10/5 150 м
[Frnb As op]
+18.3 +17.3 94 +19 +20 1022.2 981.0
18 12.02 ЮВ 4 3000 м слаб. дождь 10/4 150 м
[Frnb As op]
+19.4 +17.8 90 +22 +23 комфорт 1022.1 980.8 6
21 12.02 ЮВ 4 1000 м морось 10/10 150 м
[Frnb]
+18.6 +18.0 96 +19 +19 1020.8 979.4
00 13.02 штиль 0 10 км {морось} 10/10 150 м
[Frnb]
+17.5 +17.0 97 +17 +17 1021.8 980.2 +17.5 +19.5 0.4
03 13.02 штиль 0 10 км 10/10 150 м
[Frnb]
+17.0 +16.0 94 +17 +17 1022.0 980.2
06 13.02 штиль 0 10 км 10/10 500 м
[Sc]
+16.6 +15.4 93 +16 +16 1019.7 978.1
09 13.02 штиль 0 10 км 10/10 180 м
[Frnb]
+16.8 +15.8 94 +17 +17 1018.4 976.8
12 13.02 ЮВ 3 6000 м в посл. час морось 10/10 150 м
[Frnb]
+16.7 +15.2 91 +17 +17 1018.3 976.6 +15.6 +17.5 0.1
15 13.02 ЮВ 4 10 км 10/10 300 м
[Sc]
+19.2 +15.9 81 +21 +21 комфорт 1016.8 975.4
18 13.02 ЮВ 1 10 км 9/9 450 м
[Sc]
+21.9 +16.5 71 +26 +28 душно 1013.6 972.5
21 13.02 ЮВ 1 10 км 9/9 300 м
[Cu Sc]
+22.2 +17.2 73 +27 +27 душно 1010.9 969.8
00 14.02 штиль 0 10 км 9/9 450 м
[Sc]
+21.1 +17.9 82 +25 +25 комфорт 1011.3 970.2 +16.7 +23.2
03 14.02 ЮВ 1 10 км 10/10 450 м
[Sc]
+20.6 +19.0 91 +26 +26 душно 1013.6 972.5
06 14.02 ЮВ 4 10 км 10/10 450 м
[Sc]
+19.8 +18.9 95 +23 +23 комфорт 1013.7 972.8
09 14.02 Ю 1 1500 м слаб. морось 10/10 150 м
[Frnb]
+19.1 +18.6 97 +22 +22 комфорт 1013.8 972.8
12 14.02 Ю 3 800 м слаб. морось 10/10 150 м
[Frnb]
+19.1 +18.8 98 +21 +21 комфорт 1015.3 974.2 +19.0 +21.1 3
15 14.02 Ю 1 10 км в посл. час морось 10/10 210 м
[Cu Sc]
+22.8 +19.4 81 +29 +29 очень
душно
1014.8 973.8
18 14.02 ЮВ 1 12 км {морось} 9/6 450 м
[Cu Sc Cs]
+26.2 +19.5 67 +32 +39 очень
душно
1012.2 971.6 0.5
21 14.02 штиль 0 12 км 5/1 450 м
[Cu hum Ac und]
+27.2 +19.9 64 +33 +36 очень
душно
1010.4 969.8
00 15.02 СЗ 4 12 км 8/0
[Ac und]
+24.0 +20.0 78 +29 +29 душно 1012.2 971.4 +19.1 +27.6
03 15.02 штиль 0 12 км 3/0
[Ac trans Cs]
+21.4 +20.2 93 +27 +27 душно 1013.9 973.0
06 15.02 СЗ 3 12 км 8/0
[Ac trans Cs]
+20.8 +20.2 96 +26 +26 душно 1012.4 971.8
09 15.02 З 3 12 км 8/0
[Ac trans Cs]
+20.4 +19.8 96 +25 +25 комфорт 1012.1 971.6
12 15.02 СЗ 3 12 км 6/0
[Ac und Cs]
+21.8 +20.4 92 +28 +30 душно 1013.6 972.9 +19.7 +24.0 0.5
15 15.02 Ю 3 10 км 5/1 600 м
[Cu hum Ac und Cs]
+27.3 +21.0 69 +34 +47 очень
душно
1013.7 973.2
18 15.02 ЮВ 3 10 км 5/1 600 м
[Cu hum Ac und Cs]
+31.2 +17.8 45 +35 +47 очень
душно
1010.3 970.2
21 15.02 штиль 0 10 км 1/1 600 м
[Cu hum Ac trans]
+31.2 +17.0 43 +35 +39 очень
душно
1008.5 968.4
00 16.02 штиль 0 10 км 3/1 600 м
[Sc Cs]
+25.3 +21.4 79 +32 +32 очень
душно
1010.6 970.2 +21.8 +32.0
03 16.02 штиль 0 10 км 6/4 600 м
[Sc Cs]
+22.2 +21.0 93 +29 +29 очень
душно
1013.2 972.8
06 16.02 С 3 10 км 8/5 600 м
[Sc Cs]
+22.1 +20.7 92 +28 +28 душно 1012.0 971.8
09 16.02 штиль 0 10 км 1/0
[Cs]
+20.2 +19.4 95 +24 +24 комфорт 1011.6 971.4
12 16.02 штиль 0 12 км 8/0
[Ac trans Cs]
+24.0 +21.0 83 +30 +35 очень
душно
1013.4 973.0 +19.4 +25.3
15 16.02 штиль 0 12 км 5/5 600 м
[Cu hum]
+29.2 +19.9 57 +35 +48 очень
душно
1013.2 972.9
18 16.02 штиль 0 12 км 4/4 600 м
[Cu hum]
+29.0 +19.6 57 +35 +49 очень
душно
1010.7 970.5
21 16.02 штиль 0 12 км 5/3 600 м
[Cu med, cong Ac und]
+29.4 +19.4 55 +35 +38 очень
душно
1008.5 968.2
00 17.02 штиль 0 4000 м дым 4/4 600 м
[Sc]
+26.2 +21.1 74 +33 +33 очень
душно
1009.8 969.6 +24.0 +30.8
03 17.02 штиль 0 10 км 6/6 600 м
[Sc]
+23.8 +22.3 91 +31 +31 очень
душно
1011.2 971.0
06 17.02 штиль 0 10 км 9/9 600 м
[Sc]
+23.5 +21.7 90 +30 +30 очень
душно
1010.9 970.8
09 17.02 штиль 0 10 км 3/3 600 м
[Sc]
+22.2 +21.3 95 +29 +29 очень
душно
1010.1 970.0
12 17.02 В 1 10 км 4/4 600 м
[Sc]
+23.5 +21.4 88 +30 +33 очень
душно
1011.6 971.3 +21.6 +26.2
15 17.02 штиль 0 10 км 3/3 600 м
[Cu hum]
+28.0 +19.7 61 +34 +52 опасность
солнечного
удара
1010.4 970.2
18 17.02 ЮВ 3 10 км 4/4 600 м
[Cu hum]
+31.2 +20.5 53 +38 +48 очень
душно
1007.9 968.1
21 17.02 штиль 0 10 км 4/4 600 м
[Cu hum]
+31.0 +19.4 50 +37 +39 очень
душно
1005.6 965.8
00 18.02 штиль 0 10 км 3/3 600 м
[Sc]
+26.0 +21.9 78 +33 +33 очень
душно
1007.0 966.9 +23.5 +31.5
03 18.02 штиль 0 10 км 3/0
[Ac und]
+23.1 +20.5 85 +30 +30 очень
душно
1008.9 968.8
06 18.02 ЮВ 1 10 км 4/0
[Ac und]
+21.8 +20.3 91 +28 +28 душно 1006.8 966.9
09 18.02 С 3 10 км 6/4 600 м
[Sc Ac und]
+20.8 +19.6 93 +26 +26 душно 1006.2 966.2
12 18.02 С 3 15 км 5/0
[Ac und]
+22.7 +20.4 87 +29 +32 очень
душно
1007.2 967.0 +20.4 +26.0
15 18.02 штиль 0 15 км 1/1 600 м
[Cu hum]
+29.2 +22.0 65 +38 +61 опасность
солнечного
удара
1006.7 966.8
18 18.02 В 7 15 км 6/6 600 м
[Cu hum]
+31.4 +21.1 54 +39 +41 очень
душно
1004.0 964.2
21 18.02 штиль 0 15 км 4/4 600 м
[Sc]
+32.6 +20.8 50 +40 +42 очень
душно
1002.7 963.0
00 19.02 Ю 1 10 км ясно +27.4 +23.7 80 +37 +37 очень
душно
1004.6 964.6 +22.7 +32.8

 

Местоположение метеостанции Сан-Рамон-де-ла-Нуэва-Оран (Аргентина): широта -23.15 долгота -64.31 высота над уровнем моря 357 м.

В архиве по умолчанию представлена погода в Сан-Рамон-де-ла-Нуэва-Оране за последнюю неделю. Архивные данные за месяц целиком и за предыдущие месяцы, начиная с января 2011 года, Вы можете получить, выбрав интересующий диапазон дат из раскрывающегося списка и нажав кнопку "Ввод!".


*Определитесь, кто Вы:
робот инопланетянин человек

Внимание! Время в таблицах - всемирное. Для получения местного времени необходимо прибавить поправку, которая равна -3 ч.

Смотрите также архив погоды в соседних городах и на ближайших метеорологических станциях:

Погода в Бермехо (Боливия) (43 км)
Погода в Тартагале (Аргентина) (79 км)
Погода в Якуибе (Боливия) (150 км)
Погода в Сан-Сальвадор-де-Жужуе (Аргентина) (158 км)
Погода в Ла-Кьяке (Аргентина) (177 км)
Погода в Тарихе (Боливия) (182 км)
Погода в Сальте (Аргентина) (223 км)
Погода в Вилья-Монтесе (Боливия) (229 км)
Погода в Пратс-Гиле (Парагвай) (292 км)
Погода в Камири (Боливия) (360 км)

Пояснения к столбцам:

Ветер - указаны скорость ветра в м/с - средняя за 10 мин, порывы в срок и между сроками (в фигурных скобках) и направление, откуда дует ветер: С - северный, СВ - северо-восточный, В - восточный, ЮВ - юго-восточный, Ю - южный, ЮЗ - юго-западный, З - западный, СЗ - северо-западный.
Видимость - горизонтальная дальность видимости в метрах или километрах. При видимости от 1 до 10 км при отсутствии осадков обычно наблюдается дымка, при ухудшении видимости до 1 км и менее - туман. В сухую погоду видимость может ухудшаться дымом, пылью или мглою.
Явления - указаны атмосферные явления, наблюдавшиеся в срок или в последний час перед сроком; фигурными скобками обозначены явления, наблюдавшиеся между сроками (за 1-3 часа до срока); квадратными скобками обозначены град или гололедные отложения с указанием их диаметра в мм.
Облачность - указаны через наклонную черту общая и нижняя облачность в баллах и высота нижней границы облаков в метрах; квадратными скобками обозначены формы облаков: Ci - перистые, Cs - перисто-слоистые, Cc - перисто-кучевые, Ac - высококучевые, As - высокослоистые, Sc - слоисто-кучевые, Ns - слоисто-дождевые, Cu - кучевые, Cb - кучево-дождевые. Подробнее классификацию облаков см. в Атласе облаков (PDF).
T - Температура воздуха - температура, измеренная на высоте 2 м над землей.
Td - Температура точки росы - температура, при понижении до которой содержащийся в воздухе водяной пар достигнет насыщения.
f - Относительная влажность воздуха - влажноcть воздуха, измеренная на высоте 2 м над землей.
Te - Эффективная температура - температура, которую ощущает одетый по сезону человек в тени. Характеристика душности погоды. При расчете учитывается влияние влажности воздуха и скорости ветра на теплоощущения человека.
Tes - Эффективная температура на солнце - температура, которую ощущает человек, с поправкой на солнечный нагрев. Характеристика знойности погоды. Зависит от высоты солнца над горизонтом, облачности и скорости ветра. Ночью, в пасмурную погоду, а также при ветре 12 м/с и более поправка равна нулю.
P - Атмосферное давление - приведенное к уровню моря атмосферное давление.
Po - Атмосферное давление - измеренное на уровне метеостанции атмосферное давление.
Tmin - Минимальная температура - минимум температуры воздуха на высоте 2 м над землей.
Tmax - Максимальная температура - максимум температуры воздуха на высоте 2 м над землей.
R - Количество осадков - Количество выпавших осадков за период времени, мм. При наведении курсора мыши на число - период времени, за который выпало указанное количество осадков.
R24 - Количество осадков - Количество выпавших осадков за 24 часа, мм.
S - Снежный покров - Высота снежного покрова, см. При наведении курсора мыши на число - состояние снежного покрова и степень покрытия местности в баллах.